Regional Weather Roundup
Issued by NWS State College, PA

Home | Current Version | Previous Version | Graphics & Text | Print | Product List | Glossary On
Versions: 1 2 3 4 5 6 7 8 9 10 11 12 13 14 15 16 17 18 19 20 21 22 23 24 25 26 27 28 29 30 31 32 33 34 35 36 37 38 39 40 41 42 43 44 45 46 47 48 49 50
000
ASUS41 KCTP 191203
RWRCTP

REGIONAL WEATHER ROUNDUP
NATIONAL WEATHER SERVICE STATE COLLEGE PA
800 AM EDT FRI SEP 19 2014

Note: "fair" indicates few or no clouds below 12,000 feet with no
significant weather and/or obstructions to visibility.

* = STATION THAT DOES NOT REPORT PRECIPITATION /E.G. RAIN...SNOW...ETC/
    THUNDER OR FOG.

PAZ002>004-007>009-013>016-020>023-029>032-191300-
WESTERN PENNSYLVANIA

CITY           SKY/WX    TMP DP  RH WIND       PRES   REMARKS
ERIE           CLEAR     48  44  86 S5        30.26R
MEADVILLE      CLEAR     46  43  89 E3        30.26R
FRANKLIN*      CLOUDY    45  41  87 E5        30.28R VSB<1/4
NEW CASTLE     NOT AVBL
BEAVER COUNTY  CLEAR     48  46  93 E3        30.25R
BUTLER*        CLEAR     46  43  87 NE5       30.27R
PITTSBURGH INT PTCLDY    49  48  97 CALM      30.23R
PITTSBURGH     CLEAR     50  46  86 NE3       30.22R
INDIANA*       SUNNY     48  46  93 E6        30.29R
LATROBE        PTSUNNY   45  45 100 CALM      30.24R
WASHINGTON CO* MOCLDY    43  41  93 CALM      30.23R VSB 1/2
$$

PAZ004>006-010>012-017>019-024>028-033>037-041-042-045-046-049>053-191300-
CENTRAL PENNSYLVANIA

CITY           SKY/WX    TMP DP  RH WIND       PRES   REMARKS
BRADFORD       CLOUDY    44  41  89 E6        30.28R
DUBOIS         PTSUNNY   43  42  97 E6        30.26R FOG
CLEARFIELD     FOG       44  43  96 CALM      30.29R VSB 1/4
JOHNSTOWN      PTSUNNY   47  46  97 E3        30.25R FOG
ALTOONA        PTSUNNY   49  48  97 E3        30.28R FOG
STATE COLLEGE  SUNNY     46  46 100 NE5       30.29R
WILLIAMSPORT   SUNNY     48  43  82 CALM      30.30R
SELINSGROVE    SUNNY     50  47  89 VRB5      30.30R
FT INDIANTOWN  SUNNY     53  48  81 NE5       30.28R
CAPITAL CITY   SUNNY     53  48  83 CALM      30.28R
HARRISBURG     SUNNY     55  47  74 CALM      30.27R
YORK           SUNNY     48  46  93 CALM      30.27R
$$

PAZ038>040-043-044-047-048-054-055-060>062-067>071-191300-
EASTERN PENNSYLVANIA

CITY           SKY/WX    TMP DP  RH WIND       PRES   REMARKS
SCRANTON       SUNNY     47  43  86 CALM      30.29R
MOUNT POCONO   PTSUNNY   46  43  89 N5        30.27R
ALLENTOWN      PTSUNNY   51  46  83 NE6       30.29R
QUAKERTOWN*    SUNNY     52  48  87 NE7       30.28R
READING        SUNNY     54  47  77 NE6       30.28R
LANCASTER      SUNNY     53  48  83 NE3       30.27R
COATESVILLE    SUNNY     54  48  82 NE8       30.27R
POTTSTOWN      SUNNY     53  48  83 NE7       30.29R
BLUE BELL      SUNNY     55  50  82 CALM      30.26R
DOYLESTOWN     MOSUNNY   51  48  89 N9        30.27R
WILLOW GROVE   NOT AVBL
NORTH PHILA    SUNNY     57  47  69 NE13      30.28R
PHILADELPHIA   MOSUNNY   59  49  69 NE10      30.26R
$$



USA.gov is the U.S. government's official web portal to all federal, state and local government web resources and services.